Weather History for Kendall, FL

Change the Weather History Date:

Tuesday, November 22, 2011

  Actual Average Record
Temperature  
Mean Temperature 74 °F -  
Max Temperature 80 °F 80 °F 84 °F (1993)
Min Temperature 68 °F 63 °F 41 °F (2006)
Cooling Degree Days 9    
Growing Degree Days 24 (Base 50)    
Moisture  
Dew Point 66 °F    
Average Humidity 75    
Maximum Humidity 91    
Minimum Humidity 54    
Precipitation  
Precipitation 0.02 in - - ()
Sea Level Pressure  
Sea Level Pressure 30.13 in    
Wind  
Wind Speed 7 mph (East)    
Max Wind Speed 14 mph    
Max Gust Speed 22 mph    
Visibility 10 miles    
Events Rain    
Averages and records for this station are not official NWS values.
T = Trace of Precipitation, MM = Missing Value Source: NWS Daily Summary

Daily Weather History Graph

Daily Weather History Graph

Search for Another Location

Airport:

Trip Planner

Search our weather history database for the weather conditions in past years. The results will help you decide how hot, cold, wet, or windy it might be!

Date:

Astronomy

Nov. 22, 2011 Rise Set
Actual Time 6:44 AM EST 5:31 PM EST
Civil Twilight 6:19 AM EST 5:55 PM EST
Nautical Twilight 5:51 AM EST 6:23 PM EST
Astronomical Twilight 5:24 AM EST 6:51 PM EST
Moon 3:45 AM EST 3:20 PM EST
Length of Visible Light 11h 35m
Length of Day
10h 46m
Waning Crescent, 9% of the Moon is Illuminated
Nov 22
Waning Crescent
Nov 25
New
Dec 2
First Quarter
Dec 10
Full
Dec 17
Last Quarter

Hourly Weather History & Observations

Time (EST) Temp. Heat Index Dew Point Humidity Pressure Visibility Wind Dir Wind Speed Gust Speed Precip Events Conditions
12:53 AM 72.0 °F - 69.1 °F 91% 30.14 in 10.0 mi Calm Calm - N/A   Partly Cloudy
1:53 AM 73.4 °F - 69.8 °F 88% 30.13 in 10.0 mi ESE 8.1 mph - N/A Rain Light Rain
2:53 AM 72.0 °F - 68.0 °F 87% 30.12 in 10.0 mi East 8.1 mph - 0.00 in   Partly Cloudy
3:53 AM 72.0 °F - 66.9 °F 84% 30.11 in 10.0 mi East 5.8 mph - N/A   Clear
4:53 AM 68.0 °F - 64.9 °F 90% 30.12 in 10.0 mi East 6.9 mph - N/A   Clear
5:53 AM 68.0 °F - 64.9 °F 90% 30.12 in 10.0 mi East 4.6 mph - N/A   Clear
6:53 AM 69.8 °F - 64.4 °F 83% 30.13 in 10.0 mi ESE 3.5 mph - N/A   Clear
7:53 AM 73.0 °F - 66.0 °F 79% 30.14 in 10.0 mi East 3.5 mph - N/A   Clear
8:53 AM 77.0 °F - 66.0 °F 69% 30.16 in 10.0 mi East 10.4 mph - N/A   Scattered Clouds
9:53 AM 79.0 °F - 64.9 °F 62% 30.17 in 10.0 mi ESE 11.5 mph - N/A   Partly Cloudy
10:53 AM 80.1 °F 81.9 °F 64.9 °F 60% 30.16 in 10.0 mi ESE 13.8 mph 21.9 mph N/A   Mostly Cloudy
11:00 AM 80.6 °F 82.3 °F 64.4 °F 58% 30.16 in 2.5 mi ESE 11.5 mph - N/A   Haze
11:08 AM 80.6 °F 82.3 °F 64.4 °F 58% 30.16 in 10.0 mi ESE 10.4 mph - N/A   Scattered Clouds
11:53 AM 80.1 °F 81.5 °F 63.0 °F 56% 30.14 in 10.0 mi East 10.4 mph - N/A   Clear
12:53 PM 80.6 °F 81.8 °F 62.6 °F 54% 30.12 in 10.0 mi East 12.7 mph - N/A   Clear
1:53 PM 80.1 °F 81.7 °F 64.0 °F 58% 30.10 in 10.0 mi East 11.5 mph - N/A   Mostly Cloudy
2:53 PM 79.0 °F - 64.9 °F 62% 30.10 in 10.0 mi SE 11.5 mph - 0.01 in   Mostly Cloudy
3:53 PM 79.0 °F - 64.9 °F 62% 30.09 in 10.0 mi East 10.4 mph - N/A   Partly Cloudy
4:53 PM 75.9 °F - 66.0 °F 71% 30.11 in 10.0 mi East 12.7 mph - N/A   Mostly Cloudy
5:53 PM 75.0 °F - 64.9 °F 71% 30.12 in 10.0 mi ENE 6.9 mph - N/A   Partly Cloudy
6:53 PM 72.0 °F - 66.0 °F 81% 30.12 in 10.0 mi East 6.9 mph - 0.01 in   Clear
7:53 PM 69.8 °F - 66.2 °F 88% 30.13 in 10.0 mi East 5.8 mph - N/A   Clear
8:53 PM 72.0 °F - 66.9 °F 84% 30.15 in 10.0 mi ENE 3.5 mph - N/A   Partly Cloudy
9:53 PM 70.0 °F - 66.0 °F 87% 30.15 in 10.0 mi ENE 3.5 mph - N/A   Clear
10:53 PM 71.1 °F - 66.9 °F 87% 30.15 in 10.0 mi East 4.6 mph - N/A   Clear
11:53 PM 71.1 °F - 68.0 °F 90% 30.12 in 10.0 mi Calm Calm - N/A   Scattered Clouds